Starlink 11589

operational
NORAD ID: 63311 Int'l Des: 2025-057 Owner: SPXS Country: US Constellation: starlink
LEOCIRCULAR

关于 Starlink 11589

正在加载描述...

实时位置

正在加载3D地球...

即将过境

高度历史

Altitude vs Time

uPlot chart will show altitude changes over time

两行轨道根数

1 63311U 25057E 25259.34921702 .00274421 00000-0 20674-2 0 9995
2 63311 43.0009 235.8240 0003147 280.2712 79.7801 15.70894987 29756
Epoch: Sep 16, 2025 • Age: 13 hours

当前状态

高度 360.3 km
速度 7.70 km/s
星下点 41.18°N, 32.16°E
发射日期 Mar 18, 2025
运行时间 0.4 years
类型 internet

技术详情

分类 Payload
质量 960.00 kg
干质量 910.00 kg
总质量 960.00 kg
长度 0.30 m
直径 4.10 m
跨度 29.00 m
形状 Box + pan
制造商 SPXS
平台类型 Starlink V2MD
阶段状态 In Orbit
所有者/国家 SPXS/US

大型星座

Loading constellations...